Change the Weather History Date:

Friday, October 5, 2012

  Actual Average Record
Temperature  
Mean Temperature 34 °F -  
Max Temperature 37 °F 56 °F 75 °F (2011)
Min Temperature 30 °F 34 °F 24 °F (2003)
Degree Days  
Heating Degree Days 30    
Moisture  
Dew Point 31 °F    
Average Humidity 89    
Maximum Humidity 93    
Minimum Humidity 81    
Precipitation  
Precipitation 0.01 in - - ()
Sea Level Pressure  
Sea Level Pressure 29.90 in    
Wind  
Wind Speed 14 mph (WNW)    
Max Wind Speed 22 mph    
Max Gust Speed 30 mph    
Visibility 8 miles    
Events Rain , Snow    
Averages and records for this station are not official NWS values.
T = Trace of Precipitation, MM = Missing Value Source: NWS Daily Summary

Daily Weather History Graph

Daily Weather History Graph

Search for Another Location

Airport or City:

Trip Planner

Search our weather history database for the weather conditions in past years. The results will help you decide how hot, cold, wet, or windy it might be!

Date:

Astronomy

Oct. 05, 2012 Rise Set
Actual Time 7:16 AM CDT 6:40 PM CDT
Civil Twilight 6:45 AM CDT 7:11 PM CDT
Nautical Twilight 6:09 AM CDT 7:47 PM CDT
Astronomical Twilight 5:33 AM CDT 8:23 PM CDT
Moon 9:44 PM CDT (10/5) 12:45 PM CDT (10/5)
Length of Visible Light 12h 26m
Length of Day
11h 24m
Waning Gibbous, 74% of the Moon is Illuminated
Oct 5
Waning Gibbous
Oct 8
Last Quarter
Oct 15
New
Oct 21
First Quarter
Oct 29
Full

Hourly Weather History & Observations

Time (CDT) Temp. Windchill Dew Point Humidity Pressure Visibility Wind Dir Wind Speed Gust Speed Precip Events Conditions
12:17 AM 33.8 °F 23.9 °F 30.2 °F 87% 29.80 in 4.0 mi West 15.0 mph 24.2 mph N/A Snow Light Snow
12:37 AM 33.8 °F 23.2 °F 30.2 °F 87% 29.81 in 5.0 mi West 17.3 mph 26.5 mph N/A Snow Light Snow
12:56 AM 33.8 °F 23.2 °F 30.2 °F 87% 29.81 in 10.0 mi West 17.3 mph 25.3 mph N/A Snow Light Snow
1:17 AM 33.8 °F 23.2 °F 30.2 °F 87% 29.81 in 5.0 mi West 17.3 mph 27.6 mph N/A Snow Light Snow
1:36 AM 33.8 °F 22.8 °F 30.2 °F 87% 29.81 in 7.0 mi West 18.4 mph 27.6 mph N/A   Overcast
1:56 AM 33.8 °F 23.5 °F 30.2 °F 87% 29.81 in 7.0 mi West 16.1 mph 24.2 mph N/A Snow Light Snow
2:17 AM 33.8 °F 22.8 °F 30.2 °F 87% 29.82 in 7.0 mi West 18.4 mph 27.6 mph N/A Snow Light Snow
2:36 AM 33.8 °F 23.5 °F 28.4 °F 81% 29.81 in 10.0 mi West 16.1 mph 25.3 mph N/A   Overcast
2:57 AM 33.8 °F 22.8 °F 28.4 °F 81% 29.81 in 5.0 mi West 18.4 mph 26.5 mph N/A Snow Light Snow
3:17 AM 32.0 °F 21.6 °F 28.4 °F 87% 29.81 in 7.0 mi West 15.0 mph 24.2 mph N/A Snow Light Snow
3:36 AM 32.0 °F 21.6 °F 28.4 °F 87% 29.81 in 7.0 mi West 15.0 mph 25.3 mph N/A   Overcast
3:57 AM 32.0 °F 20.5 °F 28.4 °F 87% 29.81 in 10.0 mi West 18.4 mph 27.6 mph N/A   Overcast
4:16 AM 32.0 °F 20.8 °F 28.4 °F 87% 29.81 in 10.0 mi West 17.3 mph 28.8 mph N/A   Overcast
4:36 AM 32.0 °F 20.1 °F 28.4 °F 87% 29.82 in 10.0 mi West 19.6 mph 26.5 mph N/A   Overcast
4:57 AM 33.8 °F 23.5 °F 28.4 °F 81% 29.82 in 10.0 mi West 16.1 mph 26.5 mph N/A   Overcast
5:16 AM 32.0 °F 19.8 °F 28.4 °F 87% 29.82 in 10.0 mi West 20.7 mph 25.3 mph N/A   Overcast
5:36 AM 32.0 °F 21.6 °F 28.4 °F 87% 29.82 in 10.0 mi West 15.0 mph 27.6 mph N/A   Overcast
5:57 AM 32.0 °F 19.5 °F 28.4 °F 87% 29.82 in 10.0 mi West 21.9 mph 26.5 mph N/A   Overcast
6:17 AM 32.0 °F 21.6 °F 28.4 °F 87% 29.82 in 10.0 mi West 15.0 mph 29.9 mph N/A   Overcast
6:36 AM 32.0 °F 21.2 °F 28.4 °F 87% 29.82 in 10.0 mi WSW 16.1 mph 25.3 mph N/A   Overcast
6:57 AM 32.0 °F 21.2 °F 28.4 °F 87% 29.82 in 10.0 mi West 16.1 mph 25.3 mph N/A   Overcast
7:16 AM 32.0 °F 21.6 °F 28.4 °F 87% 29.82 in 10.0 mi West 15.0 mph 20.7 mph N/A   Overcast
7:37 AM 32.0 °F 20.5 °F 28.4 °F 87% 29.83 in 10.0 mi West 18.4 mph 28.8 mph N/A   Overcast
7:56 AM 32.0 °F 22.1 °F 28.4 °F 87% 29.83 in 10.0 mi West 13.8 mph 21.9 mph N/A   Overcast
8:17 AM 32.0 °F 20.5 °F 28.4 °F 87% 29.83 in 10.0 mi West 18.4 mph 27.6 mph N/A   Overcast
8:37 AM 33.8 °F 23.5 °F 28.4 °F 81% 29.83 in 10.0 mi West 16.1 mph 26.5 mph N/A   Overcast
8:56 AM 32.0 °F 21.2 °F 28.4 °F 87% 29.83 in 1.8 mi West 16.1 mph 24.2 mph N/A Snow Light Snow
9:17 AM 32.0 °F 22.1 °F 30.2 °F 93% 29.84 in 1.5 mi West 13.8 mph 24.2 mph N/A Snow Light Snow
9:37 AM 32.0 °F 22.5 °F 30.2 °F 93% 29.84 in 4.0 mi West 12.7 mph 21.9 mph N/A Snow Light Snow
9:56 AM 33.8 °F 24.3 °F 30.2 °F 87% 29.86 in 7.0 mi West 13.8 mph 25.3 mph N/A Snow Light Snow
10:17 AM 33.8 °F 24.3 °F 30.2 °F 87% 29.86 in 5.0 mi West 13.8 mph 23.0 mph N/A Snow Light Snow
10:37 AM 33.8 °F 25.8 °F 30.2 °F 87% 29.87 in 1.2 mi West 10.4 mph 21.9 mph N/A Snow Light Snow
10:56 AM 32.0 °F 21.2 °F 30.2 °F 93% 29.87 in 1.2 mi West 16.1 mph 19.6 mph N/A Snow Light Snow
11:36 AM 32.0 °F 22.1 °F 30.2 °F 93% 29.88 in 1.5 mi West 13.8 mph 20.7 mph 0.01 in Snow Light Snow
11:57 AM 33.8 °F 24.8 °F 30.2 °F 87% 29.89 in 1.8 mi West 12.7 mph 18.4 mph N/A Snow Light Snow
12:17 PM 33.8 °F 25.8 °F 30.2 °F 87% 29.89 in 2.5 mi West 10.4 mph - N/A Snow Light Snow
12:36 PM 33.8 °F 23.9 °F 30.2 °F 87% 29.90 in 4.0 mi West 15.0 mph 21.9 mph N/A Snow Light Snow
12:57 PM 33.8 °F 25.3 °F 32.0 °F 93% 29.90 in 7.0 mi West 11.5 mph 23.0 mph N/A   Overcast
1:36 PM 35.6 °F 25.5 °F 33.8 °F 93% 29.90 in 10.0 mi West 17.3 mph 23.0 mph N/A   Overcast
1:57 PM 37.4 °F 28.5 °F 33.8 °F 87% 29.90 in 10.0 mi West 15.0 mph 24.2 mph N/A   Overcast
2:16 PM 37.4 °F 27.8 °F 32.0 °F 81% 29.90 in 10.0 mi West 17.3 mph 24.2 mph N/A   Overcast
2:37 PM 37.4 °F 27.8 °F 33.8 °F 87% 29.90 in 10.0 mi WNW 17.3 mph 23.0 mph N/A   Overcast
2:57 PM 37.4 °F 28.9 °F 33.8 °F 87% 29.91 in 10.0 mi West 13.8 mph 21.9 mph N/A   Overcast
3:16 PM 37.4 °F 28.9 °F 33.8 °F 87% 29.92 in 10.0 mi West 13.8 mph 18.4 mph N/A   Overcast
3:37 PM 37.4 °F 28.9 °F 33.8 °F 87% 29.92 in 10.0 mi West 13.8 mph 17.3 mph N/A Rain Light Rain
3:57 PM 37.4 °F 28.5 °F 33.8 °F 87% 29.93 in 10.0 mi West 15.0 mph 23.0 mph N/A Rain Light Rain
4:16 PM 35.6 °F 29.2 °F 33.8 °F 93% 29.93 in 7.0 mi WNW 8.1 mph - N/A Rain Rain
4:37 PM 35.6 °F 29.9 °F 33.8 °F 93% 29.94 in 7.0 mi WNW 6.9 mph - N/A Rain Light Rain
4:57 PM 35.6 °F 28.6 °F 33.8 °F 93% 29.95 in 4.0 mi WNW 9.2 mph - N/A Rain Light Rain
5:16 PM 35.6 °F 29.2 °F 33.8 °F 93% 29.95 in 10.0 mi WNW 8.1 mph - N/A Rain Light Rain
5:37 PM 35.6 °F 29.9 °F 33.8 °F 93% 29.96 in 7.0 mi WNW 6.9 mph - N/A Rain Light Rain
6:16 PM 35.6 °F 29.9 °F 33.8 °F 93% 29.98 in 7.0 mi WNW 6.9 mph - N/A Rain Rain
6:37 PM 35.6 °F 29.9 °F 33.8 °F 93% 29.99 in 10.0 mi WNW 6.9 mph - N/A Rain Light Rain
6:57 PM 35.6 °F 29.9 °F 33.8 °F 93% 29.99 in 7.0 mi WNW 6.9 mph - N/A Rain Light Rain
7:16 PM 35.6 °F 29.2 °F 33.8 °F 93% 30.00 in 10.0 mi NNW 8.1 mph - N/A   Light Drizzle
7:37 PM 35.6 °F 29.9 °F 32.0 °F 87% 30.01 in 10.0 mi NNW 6.9 mph - N/A   Overcast
7:57 PM 33.8 °F 27.0 °F 32.0 °F 93% 30.02 in 10.0 mi NW 8.1 mph - N/A Snow Light Snow
8:16 PM 33.8 °F 27.7 °F 32.0 °F 93% 30.02 in 10.0 mi NNW 6.9 mph - N/A Rain Light Rain
8:37 PM 33.8 °F 28.6 °F 32.0 °F 93% 30.03 in 10.0 mi NNW 5.8 mph - N/A Snow Light Snow
8:56 PM 33.8 °F 28.6 °F 32.0 °F 93% 30.04 in 5.0 mi NNW 5.8 mph - N/A Snow Light Snow
9:16 PM 33.8 °F 29.6 °F 30.2 °F 87% 30.04 in 10.0 mi NNW 4.6 mph - N/A Snow Light Snow
9:37 PM 33.8 °F 28.6 °F 30.2 °F 87% 30.05 in 5.0 mi NNW 5.8 mph - N/A Snow Light Snow
9:56 PM 33.8 °F 27.0 °F 30.2 °F 87% 30.06 in 10.0 mi North 8.1 mph - N/A   Mostly Cloudy
10:37 PM 32.0 °F 26.4 °F 30.2 °F 93% 30.07 in 10.0 mi NNW 5.8 mph - N/A   Mostly Cloudy
10:56 PM 32.0 °F 24.8 °F 30.2 °F 93% 30.07 in 10.0 mi NNW 8.1 mph - N/A   Overcast
11:17 PM 32.0 °F 26.4 °F 30.2 °F 93% 30.08 in 10.0 mi NNW 5.8 mph - N/A   Mostly Cloudy
11:37 PM 32.0 °F 28.7 °F 28.4 °F 87% 30.08 in 10.0 mi NNW 3.5 mph - N/A   Mostly Cloudy
11:56 PM 30.2 °F 26.7 °F 28.4 °F 93% 30.08 in 10.0 mi NNW 3.5 mph - N/A   Mostly Cloudy